EZY49EV EGGW-LICJ

Flight info

Callsign EZY49EV
Flight time N/A
Altitude 37000
Route MATCH Q295 BRAIN P44 DAGGA M85 ITVIP L10 DVR UL9 KONAN DCT KOK UL607 REMBA DCT SUTAL DCT GTQ DCT DEVDI DCT ODINA DCT TINTO DCT POKAV DCT BETOT DCT RUVIP DCT RONAB DCT GIANO
Aircraft A320/M-SDE3FGHIRWY/LB1

Departure

Time 2026-05-05 11:42
Airport London Luton Airport (EGGW)

Arrival

Time N/A
Airport Falcone–Borsellino Airport (LICJ)
Time Latitude Longitude Altitude Speed Heading
2026-05-05 11:08 51.88153 -0.37563 517 ft 0 kts 202°
2026-05-05 11:30 51.88166 -0.37554 516 ft 4 kts 202°
2026-05-05 11:30 51.88184 -0.37542 516 ft 4 kts 234°
2026-05-05 11:30 51.88193 -0.37510 516 ft 3 kts 252°
2026-05-05 11:31 51.88201 -0.37468 516 ft 4 kts 252°
2026-05-05 11:31 51.88205 -0.37450 525 ft 0 kts 252°
2026-05-05 11:35 51.88204 -0.37461 516 ft 3 kts 259°
2026-05-05 11:35 51.88205 -0.37500 520 ft 3 kts 281°
2026-05-05 11:36 51.88209 -0.37536 526 ft 6 kts 281°
2026-05-05 11:36 51.88203 -0.37606 511 ft 3 kts 248°
2026-05-05 11:36 51.88201 -0.37613 513 ft 0 kts 244°
2026-05-05 11:36 51.88191 -0.37639 520 ft 6 kts 240°
2026-05-05 11:37 51.88157 -0.37731 523 ft 14 kts 237°
2026-05-05 11:37 51.88069 -0.37876 523 ft 19 kts 218°
2026-05-05 11:37 51.87968 -0.37993 523 ft 17 kts 208°
2026-05-05 11:37 51.87860 -0.37996 523 ft 15 kts 155°
2026-05-05 11:38 51.87791 -0.37885 523 ft 13 kts 118°
2026-05-05 11:38 51.87754 -0.37759 523 ft 12 kts 115°
2026-05-05 11:38 51.87718 -0.37633 518 ft 14 kts 115°
2026-05-05 11:38 51.87677 -0.37513 521 ft 10 kts 128°
2026-05-05 11:39 51.87609 -0.37460 523 ft 17 kts 172°
2026-05-05 11:39 51.87497 -0.37571 522 ft 22 kts 252°
2026-05-05 11:39 51.87455 -0.37812 522 ft 23 kts 254°
2026-05-05 11:39 51.87418 -0.38004 524 ft 11 kts 240°
2026-05-05 11:40 51.87359 -0.38077 523 ft 12 kts 204°
2026-05-05 11:40 51.87277 -0.38110 523 ft 11 kts 188°
2026-05-05 11:40 51.87237 -0.38187 523 ft 9 kts 255°
2026-05-05 11:40 51.87235 -0.38290 521 ft 10 kts 269°
2026-05-05 11:41 51.87213 -0.38300 521 ft 3 kts 127°
2026-05-05 11:41 51.87214 -0.38279 521 ft 0 kts 71°
2026-05-05 11:42 51.87228 -0.38211 523 ft 26 kts 72°
2026-05-05 11:42 51.87352 -0.37494 522 ft 103 kts 74°
2026-05-05 11:42 51.87604 -0.36050 536 ft 159 kts 70°
2026-05-05 11:42 51.87878 -0.34326 1262 ft 157 kts 73°
2026-05-05 11:43 51.88138 -0.32636 2155 ft 153 kts 73°
2026-05-05 11:43 51.88462 -0.30870 2603 ft 174 kts 69°
2026-05-05 11:43 51.88845 -0.28924 2979 ft 191 kts 69°
2026-05-05 11:43 51.89298 -0.26760 3327 ft 214 kts 70°
2026-05-05 11:44 51.89701 -0.24308 3807 ft 235 kts 83°
2026-05-05 11:44 51.89380 -0.21628 4388 ft 257 kts 118°
2026-05-05 11:44 51.88075 -0.19553 4883 ft 272 kts 148°
2026-05-05 11:44 51.86395 -0.18202 4973 ft 269 kts 155°
2026-05-05 11:45 51.85250 -0.17449 4998 ft 270 kts 158°
2026-05-05 11:45 51.83491 -0.16393 5021 ft 270 kts 158°
2026-05-05 11:45 51.81717 -0.15379 4947 ft 270 kts 158°
2026-05-05 11:45 51.79938 -0.14359 5157 ft 272 kts 156°
2026-05-05 11:46 51.78204 -0.13202 6151 ft 272 kts 154°
2026-05-05 11:46 51.76537 -0.11726 6972 ft 275 kts 137°
2026-05-05 11:46 51.75482 -0.09184 7721 ft 278 kts 107°
2026-05-05 11:46 51.75266 -0.06085 8501 ft 281 kts 83°
2026-05-05 11:47 51.75567 -0.02945 9306 ft 286 kts 80°
2026-05-05 11:47 51.75873 0.00239 10143 ft 289 kts 80°
2026-05-05 11:47 51.76168 0.03557 10500 ft 311 kts 81°
2026-05-05 11:47 51.76455 0.07122 10866 ft 328 kts 82°
2026-05-05 11:48 51.77012 0.14549 11802 ft 336 kts 82°
2026-05-05 11:48 51.77284 0.18317 12188 ft 338 kts 82°
2026-05-05 11:48 51.77593 0.22088 12457 ft 340 kts 81°
2026-05-05 11:49 51.77874 0.25884 12638 ft 340 kts 88°
2026-05-05 11:49 51.77473 0.29643 12877 ft 344 kts 111°
2026-05-05 11:49 51.76233 0.32884 13084 ft 349 kts 133°
2026-05-05 11:49 51.74124 0.35488 13892 ft 353 kts 146°
2026-05-05 11:50 51.72220 0.37496 14529 ft 355 kts 146°
2026-05-05 11:50 51.70139 0.39675 14883 ft 357 kts 146°
2026-05-05 11:50 51.68048 0.41865 15348 ft 360 kts 146°
2026-05-05 11:50 51.65947 0.44071 16038 ft 362 kts 146°
2026-05-05 11:51 51.63837 0.46293 16700 ft 364 kts 146°
2026-05-05 11:51 51.61705 0.48542 17346 ft 367 kts 146°
2026-05-05 11:51 51.59559 0.50810 17968 ft 370 kts 146°
2026-05-05 11:51 51.57398 0.53095 18563 ft 373 kts 146°
2026-05-05 11:52 51.55221 0.55388 19133 ft 375 kts 146°
2026-05-05 11:52 51.53033 0.57689 19685 ft 377 kts 146°
2026-05-05 11:52 51.50865 0.59986 20211 ft 379 kts 146°
2026-05-05 11:52 51.48630 0.62367 20738 ft 382 kts 147°
2026-05-05 11:53 51.46415 0.64744 21287 ft 384 kts 146°
2026-05-05 11:53 51.44198 0.67142 21827 ft 386 kts 147°
2026-05-05 11:53 51.41972 0.69569 22366 ft 388 kts 146°
2026-05-05 11:53 51.39739 0.72006 22836 ft 391 kts 146°
2026-05-05 11:54 51.37472 0.74465 23293 ft 395 kts 146°
2026-05-05 11:54 51.35193 0.76945 23736 ft 397 kts 147°
2026-05-05 11:54 51.32910 0.79445 24179 ft 398 kts 147°
2026-05-05 11:54 51.30627 0.81959 24642 ft 400 kts 146°
2026-05-05 11:55 51.28350 0.84448 25031 ft 402 kts 146°
2026-05-05 11:55 51.26032 0.86983 25437 ft 404 kts 147°
2026-05-05 11:55 51.23712 0.89530 25850 ft 405 kts 147°
2026-05-05 11:55 51.21393 0.92086 26272 ft 406 kts 147°
2026-05-05 11:56 51.19065 0.94657 26643 ft 407 kts 147°
2026-05-05 11:56 51.16730 0.97222 27053 ft 408 kts 147°
2026-05-05 11:56 51.14458 0.99943 27412 ft 412 kts 137°
2026-05-05 11:56 51.12674 1.03520 27767 ft 417 kts 121°
2026-05-05 11:57 51.11621 1.07833 28111 ft 424 kts 104°
2026-05-05 11:57 51.11453 1.12540 28424 ft 431 kts 85°
2026-05-05 11:57 51.12059 1.17231 28729 ft 435 kts 79°
2026-05-05 11:57 51.12363 1.22005 29031 ft 434 kts 92°
2026-05-05 11:58 51.12303 1.26823 29349 ft 436 kts 94°
2026-05-05 11:58 51.12232 1.31660 29677 ft 438 kts 94°
2026-05-05 11:58 51.12156 1.36523 29968 ft 441 kts 94°
2026-05-05 11:58 51.12080 1.41369 30226 ft 443 kts 94°
2026-05-05 11:59 51.12003 1.46282 30456 ft 445 kts 94°
2026-05-05 11:59 51.11922 1.51225 30696 ft 447 kts 94°
2026-05-05 11:59 51.11841 1.56180 30928 ft 450 kts 94°
2026-05-05 11:59 51.11760 1.60979 31159 ft 452 kts 94°
2026-05-05 12:00 51.11672 1.65988 31445 ft 452 kts 94°
2026-05-05 12:00 51.11582 1.70984 31773 ft 452 kts 94°
2026-05-05 12:00 51.11485 1.75973 32113 ft 452 kts 94°
2026-05-05 12:00 51.11387 1.80974 32434 ft 451 kts 94°
2026-05-05 12:01 51.11287 1.85966 32764 ft 451 kts 94°
2026-05-05 12:01 51.11188 1.90955 33087 ft 451 kts 94°
2026-05-05 12:01 51.11088 1.95941 33418 ft 451 kts 94°
2026-05-05 12:01 51.10988 2.00922 33737 ft 451 kts 94°
2026-05-05 12:02 51.10887 2.05901 34038 ft 451 kts 94°
2026-05-05 12:02 51.10784 2.10882 34313 ft 451 kts 94°
2026-05-05 12:02 51.10678 2.15869 34564 ft 451 kts 94°
2026-05-05 12:02 51.10566 2.20853 34815 ft 451 kts 95°
2026-05-05 12:03 51.10450 2.25840 35046 ft 451 kts 94°
2026-05-05 12:03 51.10333 2.30822 35285 ft 451 kts 94°
2026-05-05 12:03 51.10213 2.35814 35522 ft 451 kts 94°
2026-05-05 12:03 51.10092 2.40800 35731 ft 452 kts 94°
2026-05-05 12:04 51.09969 2.45784 35942 ft 452 kts 94°
2026-05-05 12:04 51.09845 2.50780 36151 ft 452 kts 94°
2026-05-05 12:04 51.09716 2.55786 36365 ft 453 kts 94°
2026-05-05 12:04 51.09586 2.60790 36575 ft 453 kts 94°
2026-05-05 12:05 51.09272 2.65749 36770 ft 451 kts 103°
2026-05-05 12:05 51.08520 2.70584 36903 ft 449 kts 108°
2026-05-05 12:05 51.06790 2.80112 36931 ft 448 kts 108°
2026-05-05 12:06 51.05050 2.89594 36943 ft 447 kts 109°
2026-05-05 12:06 51.03486 2.98126 36943 ft 447 kts 109°
2026-05-05 12:07 51.01936 3.06574 36935 ft 447 kts 109°
2026-05-05 12:07 51.00192 3.16047 36931 ft 446 kts 109°
2026-05-05 12:08 50.98442 3.25505 36925 ft 446 kts 109°
2026-05-05 12:08 50.96679 3.34950 36910 ft 446 kts 110°
2026-05-05 12:09 50.94906 3.44379 36919 ft 446 kts 110°
2026-05-05 12:09 50.93134 3.53797 36923 ft 445 kts 110°
2026-05-05 12:10 50.91355 3.63189 36918 ft 445 kts 110°
2026-05-05 12:10 50.89561 3.72577 36922 ft 445 kts 110°
2026-05-05 12:11 50.87758 3.81940 36907 ft 445 kts 110°
2026-05-05 12:11 50.85936 3.91314 36911 ft 445 kts 110°
2026-05-05 12:12 50.84108 4.00672 36909 ft 446 kts 111°
2026-05-05 12:12 50.82261 4.10038 36918 ft 446 kts 111°
2026-05-05 12:13 50.80473 4.19127 36920 ft 446 kts 111°
2026-05-05 12:13 50.78669 4.28312 36927 ft 445 kts 111°
2026-05-05 12:14 50.76818 4.37629 36935 ft 444 kts 111°
2026-05-05 12:14 50.74959 4.46917 36938 ft 443 kts 111°
2026-05-05 12:15 50.73090 4.56187 36936 ft 443 kts 111°
2026-05-05 12:15 50.71236 4.65466 36931 ft 443 kts 110°
2026-05-05 12:16 50.69446 4.74764 36905 ft 443 kts 111°
2026-05-05 12:16 50.67642 4.84045 36903 ft 442 kts 114°
2026-05-05 12:17 50.64733 4.92413 36902 ft 431 kts 133°
2026-05-05 12:17 50.60430 4.98810 36898 ft 425 kts 144°
2026-05-05 12:18 50.55823 5.04637 36887 ft 425 kts 144°
2026-05-05 12:18 50.51220 5.10475 36891 ft 425 kts 144°
2026-05-05 12:19 50.46622 5.16296 36891 ft 424 kts 144°
2026-05-05 12:19 50.42026 5.22091 36896 ft 423 kts 144°
2026-05-05 12:20 50.37440 5.27860 36896 ft 423 kts 144°
2026-05-05 12:20 50.32853 5.33622 36896 ft 422 kts 144°
2026-05-05 12:21 50.28270 5.39366 36878 ft 422 kts 144°
2026-05-05 12:21 50.23684 5.45104 36881 ft 422 kts 144°
2026-05-05 12:22 50.19098 5.50811 36872 ft 422 kts 144°
2026-05-05 12:22 50.14506 5.56508 36860 ft 422 kts 144°
2026-05-05 12:23 50.09913 5.62198 36868 ft 422 kts 144°
2026-05-05 12:23 50.05320 5.67884 36862 ft 422 kts 144°
2026-05-05 12:24 50.00721 5.73549 36862 ft 421 kts 144°
2026-05-05 12:24 49.96092 5.79237 36863 ft 421 kts 144°
2026-05-05 12:25 49.92271 5.83928 36865 ft 421 kts 144°
2026-05-05 12:25 49.87673 5.89559 36875 ft 422 kts 144°
2026-05-05 12:26 49.83077 5.95184 36865 ft 420 kts 144°
2026-05-05 12:26 49.78496 6.00783 36869 ft 419 kts 144°
2026-05-05 12:27 49.73914 6.06336 36873 ft 418 kts 145°
2026-05-05 12:27 49.69337 6.11873 36874 ft 418 kts 145°
2026-05-05 12:28 49.64764 6.17408 36876 ft 418 kts 144°
2026-05-05 12:28 49.60193 6.22924 36871 ft 417 kts 145°
2026-05-05 12:29 49.55621 6.28428 36865 ft 417 kts 144°
2026-05-05 12:29 49.51051 6.33917 36855 ft 417 kts 145°
2026-05-05 12:30 49.46388 6.39188 36861 ft 414 kts 153°
2026-05-05 12:30 49.41193 6.42902 36866 ft 412 kts 158°
2026-05-05 12:31 49.35958 6.46458 36872 ft 412 kts 158°
2026-05-05 12:31 49.30709 6.50007 36876 ft 412 kts 158°
2026-05-05 12:32 49.25457 6.53573 36876 ft 413 kts 158°
2026-05-05 12:32 49.20200 6.57138 36885 ft 414 kts 158°
2026-05-05 12:33 49.14934 6.60695 36888 ft 414 kts 158°
2026-05-05 12:33 49.09670 6.64237 36864 ft 414 kts 158°
2026-05-05 12:34 49.04401 6.67773 36870 ft 414 kts 158°
2026-05-05 12:34 48.99132 6.71298 36878 ft 414 kts 158°
2026-05-05 12:35 48.93860 6.74853 36889 ft 414 kts 158°
2026-05-05 12:35 48.88609 6.78464 36895 ft 415 kts 158°
2026-05-05 12:36 48.83344 6.82073 36874 ft 415 kts 158°
2026-05-05 12:36 48.78069 6.85660 36876 ft 416 kts 158°
2026-05-05 12:37 48.72775 6.89238 36879 ft 416 kts 158°
2026-05-05 12:37 48.67480 6.92805 36884 ft 417 kts 158°
2026-05-05 12:38 48.62180 6.96382 36878 ft 417 kts 158°
2026-05-05 12:38 48.56883 6.99955 36890 ft 417 kts 158°
2026-05-05 12:39 48.51590 7.03513 36897 ft 416 kts 158°
2026-05-05 12:39 48.46324 7.07036 36905 ft 417 kts 158°
2026-05-05 12:40 48.40991 7.10592 36895 ft 416 kts 158°
2026-05-05 12:40 48.35687 7.14124 36888 ft 417 kts 158°
2026-05-05 12:41 48.30416 7.17644 36878 ft 418 kts 158°
2026-05-05 12:41 48.25102 7.21186 36877 ft 418 kts 158°
2026-05-05 12:42 48.19777 7.24715 36877 ft 419 kts 159°
2026-05-05 12:42 48.14441 7.28235 36846 ft 419 kts 159°
2026-05-05 12:43 48.09108 7.31753 36860 ft 419 kts 159°
2026-05-05 12:43 48.03773 7.35262 36860 ft 419 kts 159°
2026-05-05 12:44 47.98438 7.38756 36861 ft 419 kts 159°
2026-05-05 12:44 47.93106 7.42246 36877 ft 419 kts 159°
2026-05-05 12:45 47.87772 7.45729 36881 ft 418 kts 159°
2026-05-05 12:45 47.82439 7.49207 36888 ft 418 kts 159°
2026-05-05 12:46 47.77105 7.52677 36883 ft 419 kts 159°
2026-05-05 12:46 47.71776 7.56173 36880 ft 419 kts 158°
2026-05-05 12:47 47.66503 7.59878 36858 ft 419 kts 157°
2026-05-05 12:47 47.61258 7.63667 36865 ft 419 kts 158°
2026-05-05 12:48 47.56008 7.67396 36868 ft 419 kts 158°
2026-05-05 12:48 47.50746 7.71084 36869 ft 419 kts 158°
2026-05-05 12:49 47.45469 7.74764 36876 ft 419 kts 158°
2026-05-05 12:49 47.40199 7.78426 36876 ft 418 kts 158°
2026-05-05 12:50 47.34936 7.82086 36882 ft 418 kts 158°
2026-05-05 12:50 47.29668 7.85752 36880 ft 419 kts 158°
2026-05-05 12:51 47.24404 7.89412 36877 ft 419 kts 158°
2026-05-05 12:51 47.19128 7.93059 36875 ft 419 kts 159°
2026-05-05 12:52 47.13847 7.96697 36873 ft 419 kts 159°
2026-05-05 12:52 47.08561 8.00332 36849 ft 420 kts 159°
2026-05-05 12:53 47.03266 8.03973 36850 ft 421 kts 159°
2026-05-05 12:53 46.97959 8.07617 36853 ft 422 kts 159°
2026-05-05 12:54 46.89982 8.13060 36860 ft 422 kts 159°
2026-05-05 12:55 46.84649 8.16701 36872 ft 423 kts 159°
2026-05-05 12:55 46.79319 8.20328 36868 ft 422 kts 160°
2026-05-05 12:56 46.73985 8.23948 36887 ft 423 kts 160°
2026-05-05 12:56 46.68648 8.27569 36895 ft 423 kts 160°
2026-05-05 12:57 46.63308 8.31175 36900 ft 423 kts 160°
2026-05-05 12:57 46.57971 8.34775 36910 ft 423 kts 160°
2026-05-05 12:58 46.52632 8.38371 36919 ft 423 kts 160°
2026-05-05 12:58 46.47298 8.41946 36972 ft 423 kts 160°
2026-05-05 12:59 46.41954 8.45526 36979 ft 423 kts 160°
2026-05-05 12:59 46.36613 8.49101 36982 ft 423 kts 161°
2026-05-05 13:00 46.28598 8.54452 37019 ft 423 kts 161°
2026-05-05 13:01 46.17911 8.61542 37021 ft 423 kts 161°
2026-05-05 13:01 46.12557 8.65086 37025 ft 423 kts 161°
2026-05-05 13:02 46.07185 8.68489 37035 ft 421 kts 163°
2026-05-05 13:02 46.01739 8.71527 37008 ft 419 kts 165°
2026-05-05 13:03 45.96281 8.74479 36989 ft 419 kts 165°
2026-05-05 13:03 45.90867 8.77472 36991 ft 419 kts 165°
2026-05-05 13:04 45.85427 8.80535 36997 ft 420 kts 164°
2026-05-05 13:04 45.79980 8.83602 36988 ft 420 kts 164°
2026-05-05 13:05 45.74498 8.86674 36994 ft 421 kts 165°
2026-05-05 13:05 45.69033 8.89702 36995 ft 421 kts 165°
2026-05-05 13:06 45.63603 8.92707 37007 ft 422 kts 165°
2026-05-05 13:06 45.58134 8.95738 37003 ft 421 kts 165°
2026-05-05 13:07 45.52679 8.98754 36976 ft 421 kts 164°
2026-05-05 13:07 45.48131 9.01267 36980 ft 422 kts 165°
2026-05-05 13:08 45.42655 9.04286 36985 ft 422 kts 165°
2026-05-05 13:08 45.37173 9.07306 36981 ft 423 kts 165°
2026-05-05 13:09 45.31674 9.10326 36986 ft 424 kts 165°
2026-05-05 13:09 45.26180 9.13332 36978 ft 423 kts 165°
2026-05-05 13:10 45.20643 9.16359 36970 ft 423 kts 165°
2026-05-05 13:10 45.15145 9.19353 36971 ft 423 kts 165°
2026-05-05 13:11 45.09650 9.22345 36975 ft 423 kts 165°
2026-05-05 13:11 45.04149 9.25333 36948 ft 423 kts 165°
2026-05-05 13:12 44.98641 9.28310 36949 ft 424 kts 165°
2026-05-05 13:12 44.93123 9.31291 36956 ft 425 kts 165°
2026-05-05 13:13 44.87599 9.34277 36957 ft 425 kts 165°
2026-05-05 13:13 44.82073 9.37257 36961 ft 425 kts 165°
2026-05-05 13:14 44.76549 9.40230 36959 ft 425 kts 165°
2026-05-05 13:14 44.71021 9.43201 36959 ft 426 kts 165°
2026-05-05 13:15 44.65488 9.46165 36958 ft 425 kts 165°
2026-05-05 13:15 44.59979 9.49095 36938 ft 426 kts 165°
2026-05-05 13:16 44.54396 9.52064 36943 ft 427 kts 165°
2026-05-05 13:16 44.48839 9.55026 36950 ft 428 kts 165°
2026-05-05 13:17 44.43272 9.57979 36967 ft 428 kts 165°
2026-05-05 13:17 44.37707 9.60930 36971 ft 428 kts 165°
2026-05-05 13:18 44.32137 9.63871 36979 ft 428 kts 165°
2026-05-05 13:18 44.26566 9.66817 36989 ft 428 kts 165°
2026-05-05 13:19 44.20995 9.69752 36993 ft 428 kts 165°
2026-05-05 13:19 44.15429 9.72679 36995 ft 428 kts 166°
2026-05-05 13:20 44.09855 9.75601 37004 ft 428 kts 166°
2026-05-05 13:20 44.04282 9.78521 37005 ft 428 kts 166°
2026-05-05 13:21 43.98708 9.81431 36991 ft 428 kts 166°
2026-05-05 13:21 43.93173 9.84306 36972 ft 428 kts 166°
2026-05-05 13:22 43.87590 9.87209 36976 ft 429 kts 166°
2026-05-05 13:22 43.82000 9.90112 36979 ft 429 kts 166°
2026-05-05 13:23 43.76404 9.93018 36965 ft 430 kts 166°
2026-05-05 13:23 43.70757 9.95942 36976 ft 431 kts 166°
2026-05-05 13:24 43.65137 9.98840 36991 ft 431 kts 166°
2026-05-05 13:24 43.59510 10.01729 36996 ft 432 kts 166°
2026-05-05 13:25 43.53872 10.04624 36972 ft 432 kts 167°
2026-05-05 13:25 43.48230 10.07524 36980 ft 433 kts 167°
2026-05-05 13:26 43.42585 10.10423 36980 ft 433 kts 167°
2026-05-05 13:26 43.36980 10.13288 36969 ft 433 kts 167°
2026-05-05 13:27 43.31327 10.16165 36976 ft 434 kts 167°
2026-05-05 13:27 43.25667 10.19054 36981 ft 434 kts 167°
2026-05-05 13:28 43.20010 10.21932 36967 ft 434 kts 167°
2026-05-05 13:28 43.14344 10.24792 36950 ft 435 kts 167°
2026-05-05 13:29 43.08663 10.27666 36958 ft 435 kts 167°
2026-05-05 13:29 43.02977 10.30547 36966 ft 436 kts 167°
2026-05-05 13:30 43.01056 10.31517 36968 ft 436 kts 167°